TimeEST,TemperatureF,Dew PointF,Humidity,Sea Level PressureIn,VisibilityMPH,Wind Direction,Wind SpeedMPH,Gust SpeedMPH,PrecipitationIn,Events,Conditions,WindDirDegrees,DateUTC
12:14 AM,29.3,22.1,75,29.82,10.0,WNW,12.7,26.5,N/A,,Overcast,290,2013-02-15 05:14:00
12:33 AM,28.4,20.3,72,29.83,10.0,WNW,16.1,28.8,N/A,,Overcast,300,2013-02-15 05:33:00
12:54 AM,28.2,20.1,72,29.84,10.0,NW,13.8,20.7,N/A,,Overcast,310,2013-02-15 05:54:00
1:13 AM,28.2,21.2,75,29.85,10.0,WNW,10.4,-,N/A,,Overcast,290,2013-02-15 06:13:00
1:34 AM,28.2,21.2,75,29.85,10.0,WNW,13.8,18.4,N/A,,Overcast,290,2013-02-15 06:34:00
1:53 AM,27.5,20.1,74,29.86,10.0,West,15.0,20.7,N/A,,Overcast,280,2013-02-15 06:53:00
2:14 AM,27.1,19.2,72,29.87,10.0,WNW,9.2,-,N/A,,Overcast,290,2013-02-15 07:14:00
2:34 AM,26.8,18.5,71,29.87,10.0,WNW,15.0,20.7,N/A,,Overcast,300,2013-02-15 07:34:00
2:53 AM,26.4,18.5,72,29.88,10.0,WNW,6.9,-,N/A,,Overcast,300,2013-02-15 07:53:00
3:14 AM,26.4,17.6,69,29.89,10.0,WNW,11.5,21.9,N/A,,Overcast,300,2013-02-15 08:14:00
3:34 AM,26.1,17.6,70,29.89,10.0,WNW,12.7,-,N/A,,Overcast,300,2013-02-15 08:34:00
3:53 AM,25.7,17.1,70,29.89,10.0,WNW,12.7,17.3,N/A,,Overcast,290,2013-02-15 08:53:00
4:14 AM,25.0,16.7,71,29.90,10.0,West,6.9,-,N/A,,Mostly Cloudy,280,2013-02-15 09:14:00
4:33 AM,24.4,16.7,72,29.91,10.0,West,10.4,-,N/A,,Scattered Clouds,270,2013-02-15 09:33:00
4:54 AM,23.7,16.5,74,29.92,10.0,West,5.8,-,N/A,,Clear,270,2013-02-15 09:54:00
5:14 AM,23.0,15.8,74,29.93,10.0,West,5.8,-,N/A,,Clear,260,2013-02-15 10:14:00
5:33 AM,23.0,16.2,75,29.94,10.0,West,6.9,-,N/A,,Clear,260,2013-02-15 10:33:00
5:54 AM,22.6,15.8,75,29.95,10.0,West,8.1,-,N/A,,Clear,260,2013-02-15 10:54:00
6:14 AM,22.5,15.8,76,29.95,10.0,West,8.1,-,N/A,,Clear,260,2013-02-15 11:14:00
6:33 AM,22.1,15.8,77,29.95,10.0,West,6.9,-,N/A,,Clear,270,2013-02-15 11:33:00
6:54 AM,21.7,15.8,78,29.96,10.0,WSW,6.9,-,N/A,,Clear,250,2013-02-15 11:54:00
7:14 AM,21.2,15.8,80,29.97,10.0,West,6.9,-,N/A,,Clear,260,2013-02-15 12:14:00
7:33 AM,21.2,16.0,80,29.98,10.0,West,6.9,-,N/A,,Scattered Clouds,260,2013-02-15 12:33:00
7:54 AM,21.2,15.8,80,29.99,10.0,West,5.8,-,N/A,,Overcast,270,2013-02-15 12:54:00
8:13 AM,21.0,15.6,80,29.99,10.0,WNW,6.9,-,N/A,,Overcast,290,2013-02-15 13:13:00
8:42 AM,22.6,16.2,76,30.00,10.0,West,8.1,-,N/A,,Overcast,270,2013-02-15 13:42:00
8:54 AM,23.0,16.3,76,30.02,10.0,West,8.1,-,N/A,,Overcast,270,2013-02-15 13:54:00
9:14 AM,23.4,16.2,74,30.02,10.0,WNW,8.1,-,N/A,,Overcast,290,2013-02-15 14:14:00
9:34 AM,23.9,15.8,71,30.03,10.0,WNW,8.1,-,N/A,,Overcast,290,2013-02-15 14:34:00
9:54 AM,24.8,16.5,71,30.03,10.0,West,10.4,-,N/A,Snow,Light Snow,280,2013-02-15 14:54:00
10:14 AM,25.2,16.9,71,30.03,10.0,West,8.1,-,N/A,,Overcast,270,2013-02-15 15:14:00
10:34 AM,25.3,17.2,71,30.04,10.0,West,8.1,-,N/A,Snow,Light Snow,270,2013-02-15 15:34:00
10:54 AM,25.7,17.6,71,30.04,10.0,West,10.4,-,N/A,Snow,Light Snow,270,2013-02-15 15:54:00
11:14 AM,25.7,17.8,72,30.04,10.0,West,4.6,-,N/A,Snow,Light Snow,270,2013-02-15 16:14:00
11:34 AM,26.4,16.7,67,30.04,10.0,NW,10.4,16.1,N/A,Snow,Light Snow,310,2013-02-15 16:34:00
11:54 AM,26.8,16.9,66,30.04,10.0,West,11.5,-,N/A,,Overcast,270,2013-02-15 16:54:00
12:14 PM,27.7,15.8,61,30.04,10.0,WNW,10.4,16.1,N/A,,Overcast,290,2013-02-15 17:14:00
12:54 PM,26.4,18.9,73,30.04,3.0,NW,12.7,-,N/A,Snow,Light Snow,310,2013-02-15 17:54:00
1:14 PM,26.8,17.1,67,30.04,10.0,NW,3.5,-,N/A,,Overcast,310,2013-02-15 18:14:00
1:34 PM,27.3,16.5,64,30.04,10.0,West,10.4,-,N/A,,Overcast,280,2013-02-15 18:34:00
1:54 PM,27.9,15.1,59,30.04,10.0,West,8.1,-,N/A,,Overcast,270,2013-02-15 18:54:00
2:14 PM,27.5,15.3,60,30.04,10.0,West,8.1,-,N/A,,Overcast,280,2013-02-15 19:14:00
2:35 PM,28.0,14.4,57,30.04,10.0,WNW,9.2,-,N/A,,Overcast,290,2013-02-15 19:35:00
2:54 PM,27.7,13.8,56,30.04,10.0,WNW,9.2,-,N/A,,Overcast,290,2013-02-15 19:54:00
3:14 PM,27.5,14.2,57,30.04,10.0,WNW,8.1,-,N/A,,Overcast,300,2013-02-15 20:14:00
3:34 PM,27.3,13.5,56,30.04,10.0,NW,6.9,-,N/A,,Overcast,310,2013-02-15 20:34:00
3:54 PM,27.5,12.6,54,30.05,10.0,WNW,9.2,-,N/A,,Overcast,290,2013-02-15 20:54:00
4:14 PM,27.3,13.3,56,30.05,10.0,West,11.5,-,N/A,,Overcast,270,2013-02-15 21:14:00
4:34 PM,27.3,13.6,56,30.06,10.0,West,8.1,-,N/A,,Overcast,280,2013-02-15 21:34:00
4:54 PM,27.0,13.8,58,30.06,10.0,WNW,9.2,-,N/A,Snow,Light Snow,290,2013-02-15 21:54:00
5:14 PM,26.8,13.1,56,30.06,10.0,WNW,11.5,-,N/A,,Overcast,290,2013-02-15 22:14:00
5:34 PM,26.6,12.2,55,30.07,10.0,WNW,8.1,-,N/A,,Overcast,290,2013-02-15 22:34:00
5:54 PM,26.6,12.4,55,30.07,10.0,WNW,6.9,-,N/A,,Overcast,290,2013-02-15 22:54:00
6:14 PM,26.4,13.3,58,30.07,10.0,West,5.8,-,N/A,,Overcast,280,2013-02-15 23:14:00
6:34 PM,26.4,13.8,59,30.08,10.0,West,3.5,-,N/A,,Overcast,280,2013-02-15 23:34:00
6:55 PM,26.2,14.2,60,30.08,10.0,West,5.8,-,N/A,,Overcast,280,2013-02-15 23:55:00
7:14 PM,26.1,14.9,63,30.09,10.0,West,5.8,-,N/A,,Overcast,260,2013-02-16 00:14:00
7:34 PM,25.7,16.0,67,30.09,10.0,West,9.2,-,N/A,,Overcast,270,2013-02-16 00:34:00
7:55 PM,25.2,17.1,71,30.09,10.0,WNW,10.4,-,N/A,,Overcast,290,2013-02-16 00:55:00
8:14 PM,24.8,17.4,74,30.10,10.0,WNW,9.2,-,N/A,,Overcast,290,2013-02-16 01:14:00
8:34 PM,23.9,18.1,79,30.10,5.0,WNW,10.4,-,N/A,Snow,Light Snow,300,2013-02-16 01:34:00
8:55 PM,23.0,18.1,82,30.11,3.0,NW,11.5,16.1,N/A,Snow,Light Snow,310,2013-02-16 01:55:00
9:14 PM,22.8,16.5,77,30.11,10.0,NW,6.9,-,N/A,,Overcast,310,2013-02-16 02:14:00
9:34 PM,22.8,14.9,72,30.11,10.0,WNW,5.8,-,N/A,,Overcast,290,2013-02-16 02:34:00
9:55 PM,22.6,14.5,71,30.11,10.0,WNW,5.8,-,N/A,,Overcast,300,2013-02-16 02:55:00
10:14 PM,22.5,14.7,72,30.11,10.0,WNW,6.9,-,N/A,,Overcast,290,2013-02-16 03:14:00
10:34 PM,22.5,13.6,69,30.10,10.0,West,3.5,-,N/A,,Overcast,280,2013-02-16 03:34:00
10:54 PM,21.4,13.1,70,30.10,10.0,Calm,Calm,-,N/A,,Overcast,0,2013-02-16 03:54:00
11:14 PM,20.5,12.7,72,30.09,10.0,WNW,3.5,-,N/A,,Mostly Cloudy,290,2013-02-16 04:14:00
11:34 PM,18.3,12.9,79,30.09,10.0,Calm,Calm,-,N/A,,Scattered Clouds,0,2013-02-16 04:34:00
11:54 PM,17.6,13.1,83,30.08,10.0,Calm,Calm,-,N/A,,Mostly Cloudy,0,2013-02-16 04:54:00